map of VCT home
VCT - Airport
Location
City:  Victoria, Texas, United States
Name:Victoria Regional
ICAO:KVCT
IATA:VCT
FAA LID:VCT

Details
Type:Airport (Part 139 Class I)
Use:Public/Civil
Latitude:2851'09"N (28.852546)
Longitude:9655'07"W (-96.918488)
Datum:WGS 1984
Elevation:115 ft (35 m)
Variation:3.29E (WMM2015 magnetic declination)
-0.11 annual change
Runways:3
Longest:9111 × 150 ft (2777 × 45.5 m), paved

Time
Time Zone:UTC-6 (DST-5)
Local Time:

Weather
METAR:KVCT 102251Z 36005KT 10SM CLR 15/02 A3037 RMK AO2 SLP283 T01500017
TAF:KVCT 102326Z 1100/1124 VRB05KT P6SM SKC
FM111700 15010KT P6SM SCT250

Related Locations
Nearby:
Farthest:RRG: 11054 mi / 17789 km
Plaine Corail [Sir Gatan Duval Airport (Plaine Corail Airport)], Rodrigues Island, MU

Find:

   beyond  
but within

Other Information
Maps:
NOTAMs:
Links:
Sources:

  
  • flag of United States
  • flag of Texas
  

Airport Diagram

Airport diagram for VCT

Airport diagram PDF

Sectional Chart

Flight Planning
at skyvector.com

Satellite Image

Google Maps Satellite view

 

Copyright © 2004-2018 Karl L. Swartz. All rights reserved.
The Great Circle Mapper name and logo are trademarks of the Great Circle Mapper.
All other trademarks mentioned herein belong to their respective owners.
Please see credits for attibutions and further copyright information.

  Follow gcmap on Facebook Follow gcmap on Twitter Follow gcmap on Google+ GCmap on LinkedIn

hCard Microformat

Geo Microformat